Погода в Хофддорпе

Нидерланды     52°18′25″N   4°42′12″E
темп.,
°C
ветер,
м/с
пор.,
м/с
влажн.,
%
обл.,
%
осадки,
мм/ч
давл.,
гПа
погр.,
м
7 марта, вс
вс701:00+1всв11750 0.0 103063
04:00+1вюв01750 0.0 102822
07:000зюз11760 0.0 102722
10:00+3зсз126670 0.0 1027337
13:00+6сз335264 0.0 10261178
16:00+5ссз345998 0.0 10251088
19:00+4ссз246598 0.1 1024574
22:00+3сз247696 0.0 1025310
8 марта, пн
пн801:00+2зсз238384 0.0 1024118
04:00+2зсз248366 0.0 1024144
07:00+2зсз128655 0.0 102432
10:00+5з237387 0.0 1024396
13:00+7з226194 0.0 1024771
16:00+6з3463100 0.0 1023704
19:00+5зюз3567100 0.0 1022536
22:00+4ююз3770100 0.0 1021451
9 марта, вт
вт901:00+4юз51082100 0.8 1020577
04:00+5зюз4894100 2.3 1018417
07:00+5зсз3796100 2.6 1018379
10:00+6зсз4891100 0.7 1019555
13:00+7зсз467999 0.7 1019572
16:00+6зсз3681100 0.0 1018461
19:00+5зюз248675 0.0 1018197
22:00+4ююз24880 0.0 1020113
10 марта, ср
ср1001:00+4ююз389317 0.0 1018262
04:00+4юз31094100 0.0 1018462
07:00+4ю41089100 0.0 1017413
10:00+7ююз61371100 0.0 1016842
13:00+9ююз71358100 0.0 10151057
16:00+9ююз71456100 0.0 10111134
19:00+6ююз81781100 1.8 1007899
22:00+8ююз91887100 3.6 1004970
11 марта, чт
чт1101:00+10юз91986100 3.8 10011090
04:00+11юз102087100 0.4 9981368
07:00+10зюз112272100 0.6 9981931
10:00+10зюз12236196 0.1 9982213
13:00+10зюз13215554 0.1 10002148
16:00+10зюз10186098 0.1 10011897
19:00+9зюз9176295 0.3 10011706
22:00+8зюз101860100 0.3 10031787